Simultaneous Nadir Overpasses (SNOs) Predictions

Prediction of SNOs between METOP-A and TERRA Satellite Orbit:

Table of predicted SNOs for the next 14.0 days since TLE Epoch: 8/28/2021
Index Date (METOP-A) Time (METOP-A) Lat,Lon (METOP-A) SZA (METOP-A ) Date (TERRA) Time (TERRA) Lat,Lon (TERRA) SZA (TERRA ) Distance(km) Time Diff (sec)
1 08/30/2021 21:51:14 -81.28, 77.26 104.81 08/30/2021 21:51:38 -81.27, 77.22 104.81 0.86 24
2 08/30/2021 22:41:54 81.26,-115.09 75.23 08/30/2021 22:41:04 81.28,-115.05 75.22 1.68 50
3 09/02/2021 17:25:34 -81.27, 143.83 103.76 09/02/2021 17:25:49 -81.28, 143.88 103.74 2.06 15
4 09/02/2021 18:16:15 81.27, -48.93 76.25 09/02/2021 18:15:16 81.27, -48.80 76.23 2.40 59
5 09/05/2021 12:59:55 -81.27,-150.00 102.72 09/05/2021 13:00:01 -81.27,-149.90 102.71 1.68 6
6 09/05/2021 13:50:35 81.26, 17.58 77.32 09/05/2021 13:49:27 81.27, 17.77 77.31 3.38 68
7 09/08/2021 07:43:35 81.28, 108.84 78.32 09/08/2021 07:44:45 81.28, 109.01 78.37 2.94 70
8 09/08/2021 08:34:15 -81.27, -83.47 101.64 09/08/2021 08:34:12 -81.28, -83.36 101.63 2.17 3
9 09/11/2021 03:17:54 81.28, 175.32 79.41 09/11/2021 03:18:55 81.28, 175.47 79.45 2.48 61



Historial Predications of SNOs between METOP-A and TERRA
